User: anonymous   Login
Location: Unspecified
(0.0000°N, 0.0000°E)
Time: 05:58:51
(UTC+00:00)
Language:

RAX-2 - Orbit

View from above orbital plane
View from above orbital plane
View from above satellite
View from above satellite

Ground track
Ground track

The orbit data is extracted from the following two-line orbital elements,

1 37853U 11061D   16038.88737454  .00004323  00000-0  25937-3 0  9990
2 37853 101.7154  11.2546 0186259 107.0871 255.0831 14.98600450232379
Epoch (UTC): 07 February 2016 21:17:49
Eccentricity: 0.0186259
inclination: 101.7154°
perigee height: 442 km
apogee height: 700 km
right ascension of ascending node: 11.2546°
argument of perigee: 107.0871°
revolutions per day: 14.98600450
mean anomaly at epoch: 255.0831°
orbit number at epoch: 23237

The dashed part of the orbit path shows where the satellite is in the earth's shadow,  

DLR